Hourly Data Report for September 12, 2017

All times are specified in Local Standard Time (LST). Add 1 hour to adjust for Daylight Saving Time where and when it is observed.

BAKER LAKE A
NUNAVUT

64°17'56.000" N
96°04'40.000" W
18.60 m
2300503
71926
YBK

Download Data

Hourly Data (September 2017)
Hourly Data Report for September 12, 2017
Temp Definition
°C
Dew Point Temp Definition
°C
Rel Hum Definition
%
Wind Dir Definition
10's deg

Wind Spd Definition
km/h
Visibility Definition
km
Stn Press Definition
kPa
Hmdx Definition


Wind Chill Definition


Weather Definition


TIME
00:00 Legend Double Dagger 3.1 -0.6 76 34 17 24.1 100.40     Mostly Cloudy
01:00 Legend Double Dagger 1.9 -0.5 84 34 17 32.2 100.44     LegendNANA
02:00 Legend Double Dagger 2.2 -0.4 83 32 21 24.1 100.48     LegendNANA
03:00 Legend Double Dagger 1.0 -0.7 89 33 17 24.1 100.52     Mostly Cloudy
04:00 Legend Double Dagger 2.3 -0.6 81 36 24 24.1 100.55     LegendNANA
05:00 Legend Double Dagger 0.7 -1.4 86 34 20 24.1 100.58     LegendNANA
06:00 Legend Double Dagger 0.8 -1.0 88 36 20 32.2 100.60     Mostly Cloudy
07:00 Legend Double Dagger 2.0 -0.2 85 35 26 32.2 100.65     LegendNANA
08:00 Legend Double Dagger 2.9 0.2 82 1 22 32.2 100.71     LegendNANA
09:00 Legend Double Dagger 3.8 0.5 79 36 26 32.2 100.74     Mostly Cloudy
10:00 Legend Double Dagger 4.7 0.8 75 1 20 32.2 100.79     LegendNANA
11:00 Legend Double Dagger 6.3 0.5 66 35 20 32.2 100.79     LegendNANA
12:00 Legend Double Dagger 7.6 0.0 58 35 22 32.2 100.77     Mostly Cloudy
13:00 Legend Double Dagger 7.8 -1.2 53 36 27 32.2 100.79     LegendNANA
14:00 Legend Double Dagger 8.0 -1.5 51 36 26 32.2 100.82     LegendNANA
15:00 Legend Double Dagger 8.5 -2.0 47 36 25 32.2 100.86     Mostly Cloudy
16:00 Legend Double Dagger 8.4 -2.2 47 1 22 32.2 100.88     LegendNANA
17:00 Legend Double Dagger 8.0 -2.3 48 2 19 32.2 100.92     LegendNANA
18:00 Legend Double Dagger 7.2 -2.0 52 1 13 32.2 100.96     Mostly Cloudy
19:00 Legend Double Dagger 4.7 -1.9 62 33 12 32.2 101.01     LegendNANA
20:00 Legend Double Dagger 2.5 -1.2 76 35 15 24.1 101.03     LegendNANA
21:00 Legend Double Dagger 2.8 -0.7 78 36 18 24.1 101.07     Mostly Cloudy
22:00 Legend Double Dagger 1.3 -1.3 83 36 14 24.1 101.10     LegendNANA
23:00 Legend Double Dagger 0.9 -1.3 85 36 15 24.1 101.13     LegendNANA

Notes on Data Quality.

Legend

  • E = Estimated
  • M = Missing
  • NA = Not Available
  • ‡ = Partner data that is not subject to review by the National Climate Archives
Date modified: